User: anonymous   Login
Location: Caltech
(34.1382°N, 118.1253°W)
Time: 16:10:23
(UTC-07:00)
Language:

ALOS - Orbit

View from above orbital plane
View from above orbital plane
View from above satellite
View from above satellite

Ground track
Ground track

The orbit data is extracted from the following two-line orbital elements,

1 28931U 06002A   16122.20332746  .00000214  00000-0  51305-4 0  9995
2 28931  97.8887 163.1129 0001841 121.3098 238.8284 14.62173820547255
Epoch (UTC): 01 May 2016 04:52:47
Eccentricity: 0.0001841
inclination: 97.8887°
perigee height: 685 km
apogee height: 687 km
right ascension of ascending node: 163.1129°
argument of perigee: 121.3098°
revolutions per day: 14.62173820
mean anomaly at epoch: 238.8284°
orbit number at epoch: 54725

The dashed part of the orbit path shows where the satellite is in the earth's shadow,  

DLR